Simultaneous Nadir Overpasses (SNOs) Predictions

Prediction of SNOs between GOES-16 and AQUA Satellite Orbit:

Table of predicted SNOs for the next 14.0 days since TLE Epoch: 6/12/2021
Index Date Time (GOES-16) GOES-16 Lat,Lon AQUA Lat,Lon Distance(km) Time Diff (sec)
1 06/12/2021 18:35:11 0.03, -75.25 0.17, -74.63 70.25 80
2 06/14/2021 18:22:59 0.03, -75.26 0.76, -71.67 407.65 80
3 06/15/2021 06:41:35 -0.03, -75.25 0.33, -76.83 179.40 80
4 06/17/2021 06:32:04 -0.03, -75.27 -0.33, -73.88 158.74 80
5 06/17/2021 18:50:48 0.03, -75.28 -0.76, -79.07 430.28 80
6 06/19/2021 06:19:52 -0.03, -75.29 -0.93, -70.91 497.38 80
7 06/19/2021 18:38:36 0.03, -75.30 -0.16, -76.11 91.53 80
8 06/21/2021 18:29:05 0.04, -75.33 0.51, -73.16 247.46 80
9 06/22/2021 06:47:41 -0.05, -75.33 0.58, -78.32 339.19 80
10 06/24/2021 06:35:29 -0.05, -75.36 -0.03, -75.35 2.08 80
